[Date Prev][Date Next][Thread Prev][Thread Next] - [Date Index][Thread Index][Author Index]

2 Line ISS Keps 12-4



ISS 
1 25544U 98067A   04339.29518519  .00016592  00000-0  13409-3 0  2861
2 25544  51.6369 177.5506 0004277  75.8656 273.7438 15.70979884345037
----
Via the sarex mailing list at AMSAT.ORG courtesy of AMSAT-NA.
To unsubscribe, send "unsubscribe sarex" to Majordomo@amsat.org



AMSAT Top AMSAT Home